1484967600.23,35025,7.56,74086.3,-7.29,-8.93,-8.63,0,*52
1484967601.42,35026,7.56,74082.3,-7.29,-8.93,-8.63,0,*51
1484967602.62,35027,7.56,74080.0,-7.29,-8.93,-8.55,0,*55
1484967603.81,35028,7.56,74080.3,-7.29,-8.93,-8.63,0,*5F
1484967605.0,35029,7.56,74080.0,-7.29,-8.93,-8.55,0,*5B
1484967606.19,35030,7.56,74082.5,-7.29,-8.93,-8.63,0,*56
1484967607.39,35031,7.56,74082.0,-7.29,-8.93,-8.63,0,*57
1484967608.58,35032,7.56,74082.0,-7.29,-9.01,-8.63,0,*5E
1484967609.77,35033,7.56,74080.3,-7.29,-8.93,-8.55,0,*50
1484967610.96,35034,7.56,74078.8,-7.29,-8.93,-8.55,0,*57
1484967612.15,35035,7.56,74082.0,-7.29,-8.93,-8.55,0,*56
1484967613.38,35036,7.56,74080.5,-7.27,-8.89,-8.59,0,*5C
1484967614.6,35037,7.56,74082.3,-7.27,-8.89,-8.59,0,*5D
1484967615.82,35038,7.56,74080.3,-7.27,-8.89,-8.59,0,*52
1484967617.05,35039,7.56,74080.3,-7.27,-8.89,-8.59,0,*53
1484967618.3,35040,7.56,74084.8,-7.27,-8.89,-8.51,0,*55
1484967619.55,35041,7.56,74084.3,-7.27,-8.89,-8.51,0,*54
1484967620.81,35042,7.56,74080.3,-7.27,-8.89,-8.51,0,*57
1484967622.06,35043,7.56,74080.5,-7.27,-8.85,-8.51,0,*5A
1484967623.31,35044,7.56,74080.3,-7.27,-8.85,-8.51,0,*5D
1484967624.54,35045,7.56,74078.5,-7.27,-8.85,-8.59,0,*54
1484967625.79,35046,7.56,74080.0,-7.27,-8.85,-8.51,0,*5F
1484967627.01,35047,7.56,74080.0,-7.27,-8.85,-8.59,0,*56
1484967628.24,35048,7.56,74082.5,-7.27,-8.89,-8.59,0,*55
1484967629.46,35049,7.56,74086.0,-7.27,-8.97,-8.59,0,*5B
1484967630.68,35050,7.56,74086.0,-7.25,-8.89,-8.51,0,*56
1484967631.88,35051,7.56,74084.8,-7.25,-8.89,-8.59,0,*5F
1484967633.14,35052,7.56,74080.0,-7.27,-8.85,-8.51,0,*5A
1484967634.39,35053,7.56,74086.0,-7.27,-8.85,-8.51,0,*5B
1484967635.62,35054,7.56,74086.0,-7.25,-8.85,-8.51,0,*5E
1484967636.85,35055,7.56,74086.0,-7.27,-8.85,-8.45,0,*58
1484967638.06,35056,7.56,74084.0,-7.25,-8.85,-8.37,0,*5C
1484967639.28,35057,7.56,74086.5,-7.27,-8.75,-8.45,0,*55
1484967640.48,35058,7.56,74084.3,-7.25,-8.75,-8.37,0,*5D
1484967641.69,35059,7.56,74086.0,-7.25,-8.71,-8.37,0,*58
1484967642.89,35060,7.56,74082.5,-7.25,-8.71,-8.33,0,*56
1484967644.1,35061,7.56,74082.0,-7.25,-8.71,-8.37,0,*53
1484967645.3,35062,7.56,74078.8,-7.25,-8.75,-8.37,0,*54
1484967646.5,35063,7.56,74076.8,-7.25,-8.75,-8.45,0,*50
1484967647.71,35064,7.56,74078.5,-7.25,-8.85,-8.45,0,*58
1484967648.92,35065,7.56,74076.8,-7.23,-8.81,-8.41,0,*5F
1484967650.14,35066,7.56,74084.0,-7.23,-8.81,-8.41,0,*5C
1484967651.38,35067,7.56,74076.5,-7.21,-8.81,-8.41,0,*5F
1484967652.6,35068,7.56,74078.3,-7.23,-8.81,-8.41,0,*52
1484967653.81,35069,7.56,74080.5,-7.23,-8.81,-8.55,0,*56
1484967655.02,35070,7.56,74078.0,-7.23,-8.81,-8.55,0,*5E
1484967656.22,35071,7.56,74080.5,-7.23,-8.85,-8.55,0,*5B
1484967657.42,35072,7.56,74086.8,-7.23,-8.85,-8.55,0,*58
1484967658.64,35073,7.56,74082.0,-7.21,-8.93,-8.55,0,*5C
1484967659.83,35074,7.56,74086.0,-7.23,-8.85,-8.55,0,*5E
1484967661.03,35075,7.56,74086.0,-7.23,-8.85,-8.55,0,*5F
1484967662.23,35076,7.56,74084.0,-7.23,-8.85,-8.55,0,*5C
1484967663.45,35077,7.56,74082.3,-7.21,-8.85,-8.45,0,*5E
1484967664.65,35078,7.56,74082.0,-7.23,-8.93,-8.55,0,*55
1484967665.87,35079,7.56,74082.0,-7.21,-8.93,-8.55,0,*56
1484967667.07,35080,7.56,74082.0,-7.23,-8.93,-8.59,0,*5E
1484967668.27,35081,7.56,74080.3,-7.23,-8.93,-8.59,0,*5F
1484967669.48,35082,7.56,74076.0,-7.21,-8.85,-8.55,0,*55
1484967670.68,35083,7.56,74078.0,-7.23,-8.85,-8.55,0,*56
1484967671.9,35084,7.56,74082.3,-7.21,-8.93,-8.59,0,*58
1484967673.1,35085,7.56,74080.3,-7.23,-8.93,-8.59,0,*5B
1484967674.3,35086,7.56,74080.8,-7.23,-8.93,-8.67,0,*55
1484967675.49,35087,7.56,74080.3,-7.23,-8.93,-8.55,0,*55
1484967676.69,35088,7.56,74082.8,-7.23,-8.93,-8.59,0,*56
1484967677.89,35089,7.56,74078.5,-7.23,-8.85,-8.59,0,*50
1484967679.08,35090,7.56,74076.0,-7.23,-8.93,-8.67,0,*52
1484967680.3,35091,7.56,74078.0,-7.21,-8.97,-8.67,0,*55
1484967681.51,35092,7.56,74082.8,-7.21,-8.97,-8.71,0,*51
1484967682.73,35093,7.56,74082.5,-7.21,-9.01,-8.67,0,*59
1484967683.94,35094,7.56,74082.5,-7.21,-8.97,-8.67,0,*50
1484967685.13,35095,7.56,74078.5,-7.23,-8.97,-8.67,0,*53
1484967686.33,35096,7.56,74078.3,-7.23,-8.97,-8.59,0,*5D
1484967687.54,35097,7.56,74074.0,-7.21,-8.97,-8.67,0,*53
1484967688.76,35098,7.56,74078.3,-7.21,-9.01,-8.59,0,*5F
1484967689.95,35099,7.56,74078.8,-7.23,-8.97,-8.67,0,*5F
1484967691.14,35100,7.56,74076.3,-7.23,-9.01,-8.67,0,*50
1484967692.34,35101,7.56,74074.8,-7.23,-9.01,-8.67,0,*51
1484967693.56,35102,7.56,74076.5,-7.21,-9.01,-8.67,0,*50
1484967694.76,35103,7.56,74070.5,-7.23,-9.01,-8.71,0,*54
1484967695.98,35104,7.56,74080.0,-7.23,-9.01,-8.81,0,*5C
1484967697.23,35105,7.56,74076.0,-7.21,-9.01,-8.81,0,*5F
1484967698.43,35106,7.56,74080.8,-7.23,-9.01,-8.71,0,*51
1484967699.63,35107,7.56,74078.3,-7.23,-9.01,-8.71,0,*50
1484967700.82,35108,7.56,74078.5,-7.23,-8.97,-8.71,0,*51
1484967702.02,35109,7.56,74078.3,-7.23,-9.01,-8.71,0,*5E
1484967703.27,35110,7.56,74078.5,-7.21,-9.01,-8.81,0,*5B
1484967704.49,35111,7.56,74080.8,-7.23,-8.97,-8.81,0,*56
1484967705.71,35112,7.56,74084.5,-7.23,-9.01,-8.81,0,*5B
1484967706.93,35113,7.56,74080.5,-7.23,-9.01,-8.81,0,*5A
1484967708.13,35114,7.56,74076.8,-7.23,-9.01,-8.71,0,*52
1484967709.37,35115,7.56,74082.5,-7.21,-8.97,-8.81,0,*50
1484967710.57,35116,7.56,74080.0,-7.23,-9.01,-8.71,0,*50
1484967711.77,35117,7.56,74084.3,-7.23,-9.01,-8.71,0,*51
1484967713.0,35118,7.56,74086.5,-7.21,-9.01,-8.71,0,*5C
1484967714.22,35119,7.56,74086.3,-7.23,-9.01,-8.81,0,*50
1484967715.44,35120,7.56,74084.3,-7.21,-9.01,-8.71,0,*57
1484967716.66,35121,7.56,74080.0,-7.21,-9.01,-8.67,0,*51
1484967717.89,35122,7.56,74078.3,-7.21,-9.01,-8.71,0,*55
1484967719.11,35123,7.56,74078.0,-7.21,-9.01,-8.71,0,*54
1484967720.3,35124,7.56,74078.5,-7.23,-8.97,-8.71,0,*5F
1484967721.5,35125,7.56,74078.5,-7.23,-8.97,-8.71,0,*5E
1484967722.69,35126,7.56,74078.8,-7.23,-8.97,-8.71,0,*5D
1484967723.88,35127,7.56,74078.0,-7.23,-8.97,-8.71,0,*5C
1484967725.08,35128,7.56,74076.8,-7.23,-9.01,-8.71,0,*5D
1484967726.31,35129,7.56,74080.5,-7.23,-9.01,-8.81,0,*53
1484967727.52,35130,7.56,74080.8,-7.21,-8.97,-8.71,0,*58
1484967728.75,35131,7.56,74080.0,-7.23,-9.01,-8.81,0,*5A
1484967729.95,35132,7.56,74084.3,-7.23,-9.01,-8.71,0,*56
1484967731.17,35133,7.56,74080.0,-7.23,-9.01,-8.81,0,*58
1484967732.39,35134,7.56,74082.8,-7.21,-8.97,-8.71,0,*5C
1484967733.6,35135,7.56,74076.8,-7.21,-9.01,-8.67,0,*54
1484967734.82,35136,7.56,74078.3,-7.21,-8.97,-8.67,0,*59
1484967736.02,35137,7.56,74078.8,-7.23,-9.01,-8.71,0,*53
1484967737.24,35138,7.56,74080.5,-7.23,-9.01,-8.81,0,*53
1484967738.49,35139,7.56,74076.0,-7.21,-9.11,-8.71,0,*5E
1484967739.7,35140,7.56,74080.0,-7.21,-8.97,-8.71,0,*5F
1484967740.93,35141,7.56,74082.5,-7.23,-9.11,-8.71,0,*53
1484967742.13,35142,7.56,74080.3,-7.23,-9.01,-8.71,0,*51
1484967743.34,35143,7.56,74084.8,-7.21,-8.97,-8.71,0,*5C
1484967744.57,35144,7.56,74080.3,-7.21,-9.01,-8.71,0,*55
1484967745.79,35145,7.56,74080.5,-7.21,-8.97,-8.71,0,*5A
1484967747.0,35146,7.56,74082.0,-7.21,-8.97,-8.71,0,*59
1484967748.24,35147,7.56,74080.3,-7.21,-8.97,-8.81,0,*57
1484967749.45,35148,7.56,74080.3,-7.21,-8.97,-8.67,0,*50
1484967750.67,35149,7.56,74082.3,-7.21,-8.97,-8.71,0,*56
1484967751.89,35150,7.56,74080.5,-7.21,-9.01,-8.71,0,*50
1484967753.09,35151,7.56,74080.8,-7.23,-9.01,-8.71,0,*53
1484967754.32,35152,7.56,74086.3,-7.21,-9.01,-8.71,0,*52
1484967755.54,35153,7.56,74088.0,-7.23,-9.01,-8.81,0,*5E
1484967756.79,35154,7.56,74086.0,-7.21,-9.01,-8.81,0,*5B
1484967757.99,35155,7.56,74084.5,-7.23,-9.01,-8.71,0,*57
1484967759.18,35156,7.56,74088.8,-7.23,-8.97,-8.59,0,*50
1484967760.37,35157,7.56,74086.3,-7.23,-8.97,-8.67,0,*5C
1484967761.57,35158,7.56,74088.0,-7.23,-8.93,-8.59,0,*5A
1484967762.81,35159,7.56,74084.5,-7.17,-8.81,-8.41,0,*56
1484967764.06,35160,7.56,74084.0,-7.17,-8.81,-8.45,0,*58
1484967765.28,35161,7.56,74084.3,-7.21,-8.93,-8.55,0,*5E
1484967766.5,35162,7.56,74086.3,-7.21,-8.85,-8.55,0,*5A
1484967767.72,35163,7.56,74082.3,-7.21,-8.85,-8.55,0,*5B
1484967768.94,35164,7.56,74080.0,-7.21,-8.85,-8.41,0,*59
1484967770.16,35165,7.56,74082.5,-7.23,-8.81,-8.41,0,*5E
1484967771.4,35166,7.56,74084.3,-7.21,-8.81,-8.41,0,*5F
1484967772.64,35167,7.56,74084.8,-7.21,-8.81,-8.41,0,*5E
1484967773.89,35168,7.56,74086.5,-7.21,-8.81,-8.45,0,*55
1484967775.11,35169,7.56,74084.0,-7.17,-8.75,-8.41,0,*5E
1484967776.35,35170,7.56,74086.0,-7.17,-8.81,-8.41,0,*5D
1484967777.62,35171,7.56,74082.8,-7.17,-8.81,-8.51,0,*5D
1484967778.87,35172,7.56,74084.8,-7.17,-8.81,-8.41,0,*5F
1484967780.11,35173,7.56,74084.8,-7.17,-8.81,-8.41,0,*5E
1484967781.38,35174,7.56,74084.0,-7.17,-8.81,-8.51,0,*58
1484967782.65,35175,7.56,74084.5,-7.17,-8.81,-8.51,0,*59
1484967783.92,35176,7.56,74086.3,-7.17,-8.81,-8.51,0,*5A
1484967785.19,35177,7.56,74082.8,-7.17,-8.81,-8.51,0,*5B
1484967786.39,35178,7.56,74082.8,-7.15,-8.89,-8.55,0,*5A
1484967787.63,35179,7.56,74082.8,-7.17,-8.81,-8.63,0,*54
1484967788.85,35180,7.56,74078.8,-7.17,-8.93,-8.55,0,*54
1484967790.07,35181,7.56,74080.3,-7.17,-8.89,-8.55,0,*5E
1484967791.3,35182,7.56,74078.5,-7.17,-8.89,-8.55,0,*5D
1484967792.49,35183,7.56,74080.0,-7.15,-8.89,-8.55,0,*5E
1484967793.69,35184,7.56,74082.3,-7.15,-8.89,-8.55,0,*59
1484967794.91,35185,7.56,74078.5,-7.17,-8.89,-8.63,0,*5F
1484967796.11,35186,7.56,74076.8,-7.15,-8.93,-8.63,0,*55
1484967797.33,35187,7.56,74080.0,-7.17,-8.97,-8.63,0,*52
1484967798.55,35188,7.56,74078.5,-7.17,-8.89,-8.55,0,*57
1484967799.77,35189,7.56,74080.5,-7.17,-8.93,-8.55,0,*5D
1484967800.97,35190,7.56,74082.3,-7.15,-8.93,-8.55,0,*57
1484967802.19,35191,7.56,74082.5,-7.17,-8.97,-8.63,0,*55
1484967803.41,35192,7.56,74080.8,-7.17,-8.93,-8.63,0,*52
1484967804.63,35193,7.56,74078.3,-7.17,-8.93,-8.67,0,*57
1484967805.86,35194,7.56,74082.0,-7.17,-8.89,-8.63,0,*5F
1484967807.08,35195,7.56,74080.5,-7.17,-8.89,-8.55,0,*5B
1484967808.28,35196,7.56,74078.0,-7.15,-8.89,-8.55,0,*5A
1484967809.47,35197,7.56,74078.5,-7.15,-8.93,-8.63,0,*55
1484967810.7,35198,7.56,74080.0,-7.17,-8.89,-8.55,0,*56
1484967811.92,35199,7.56,74082.0,-7.17,-8.93,-8.55,0,*5C
1484967813.14,35200,7.56,74082.0,-7.17,-8.93,-8.55,0,*5F
1484967814.36,35201,7.56,74076.3,-7.17,-8.89,-8.55,0,*55
1484967815.59,35202,7.56,74080.0,-7.17,-8.89,-8.55,0,*56
1484967816.86,35203,7.56,74078.8,-7.17,-8.81,-8.51,0,*5B
1484967818.1,35204,7.56,74084.3,-7.17,-8.81,-8.55,0,*58
1484967819.31,35205,7.56,74082.0,-7.15,-8.81,-8.55,0,*5B
1484967820.53,35206,7.56,74076.5,-7.17,-8.89,-8.63,0,*57
1484967821.73,35207,7.56,74078.3,-7.15,-8.89,-8.63,0,*54
1484967822.93,35208,7.56,74080.3,-7.15,-8.89,-8.55,0,*5E
1484967824.12,35209,7.56,74078.5,-7.15,-8.97,-8.63,0,*55
1484967825.31,35210,7.56,74078.5,-7.15,-8.93,-8.67,0,*5D
1484967826.53,35211,7.56,74076.5,-7.17,-8.97,-8.75,0,*59
1484967827.75,35212,7.56,74076.3,-7.17,-8.97,-8.75,0,*5A
1484967828.97,35213,7.56,74082.0,-7.15,-9.11,-8.75,0,*56
1484967830.17,35214,7.56,74076.3,-7.15,-9.05,-8.75,0,*54
1484967831.42,35215,7.56,74078.0,-7.17,-9.11,-8.75,0,*52
1484967832.61,35216,7.56,74078.3,-7.15,-9.05,-8.67,0,*55
1484967833.83,35217,7.56,74076.3,-7.17,-9.05,-8.75,0,*55
1484967835.03,35218,7.56,74078.0,-7.15,-9.05,-8.75,0,*58
1484967836.25,35219,7.56,74080.3,-7.17,-9.05,-8.75,0,*5B
1484967837.5,35220,7.56,74076.0,-7.17,-9.11,-8.75,0,*54
1484967838.72,35221,7.56,74078.0,-7.17,-8.97,-8.75,0,*5A
1484967839.94,35222,7.56,74080.8,-7.17,-8.97,-8.67,0,*5A
1484967841.13,35223,7.56,74086.3,-7.15,-8.97,-8.67,0,*59
1484967842.35,35224,7.56,74084.0,-7.17,-8.93,-8.55,0,*59
1484967843.54,35225,7.56,74084.5,-7.15,-8.93,-8.55,0,*5A
1484967844.76,35226,7.56,74086.0,-7.17,-8.93,-8.55,0,*5B
1484967845.96,35227,7.56,74084.5,-7.15,-8.89,-8.63,0,*56
1484967847.16,35228,7.56,74084.0,-7.15,-8.89,-8.63,0,*59
1484967848.38,35229,7.56,74082.5,-7.17,-8.89,-8.55,0,*5F
1484967849.6,35230,7.56,74080.3,-7.17,-8.97,-8.55,0,*58
1484967850.8,35231,7.56,74084.5,-7.15,-8.93,-8.63,0,*5A
1484967851.99,35232,7.56,74082.5,-7.15,-8.93,-8.63,0,*59
1484967853.19,35233,7.56,74086.5,-7.15,-8.89,-8.55,0,*56
1484967854.41,35234,7.56,74076.3,-7.17,-8.93,-8.55,0,*58
1484967855.64,35235,7.56,74080.8,-7.17,-8.93,-8.63,0,*5C
1484967856.83,35236,7.56,74082.0,-7.15,-8.97,-8.63,0,*59
1484967858.02,35237,7.56,74080.8,-7.15,-8.97,-8.67,0,*5C
1484967859.21,35238,7.63,74082.0,-7.15,-8.93,-8.67,0,*57
1484967860.41,35239,7.56,74076.8,-7.15,-8.93,-8.67,0,*56
1484967861.6,35240,7.56,74078.8,-7.15,-8.97,-8.75,0,*5F
1484967862.82,35241,7.63,74080.8,-7.17,-8.97,-8.75,0,*5C
1484967864.04,35242,7.56,74080.5,-7.17,-8.97,-8.75,0,*5F
1484967865.25,35243,7.63,74084.3,-7.17,-8.97,-8.67,0,*5D
1484967866.44,35244,7.56,74078.5,-7.15,-8.97,-8.67,0,*58
1484967867.66,35245,7.56,74078.8,-7.17,-9.05,-8.75,0,*52
1484967868.91,35246,7.56,74080.3,-7.17,-9.11,-8.75,0,*54
1484967870.14,35247,7.56,74078.5,-7.15,-9.11,-8.75,0,*57
1484967871.36,35248,7.56,74078.0,-7.17,-9.05,-8.75,0,*5F
1484967872.61,35249,7.56,74074.5,-7.17,-9.11,-8.75,0,*5B
1484967873.86,35250,7.56,74074.8,-7.17,-9.11,-8.75,0,*53
1484967875.08,35251,7.56,74074.5,-7.15,-9.11,-8.75,0,*50
1484967876.35,35252,7.56,74078.5,-7.17,-9.11,-8.81,0,*5A
1484967877.56,35253,7.56,74078.3,-7.15,-9.23,-8.89,0,*50
1484967878.78,35254,7.56,74080.3,-7.17,-9.23,-8.93,0,*5E
1484967879.98,35255,7.56,74076.5,-7.15,-9.31,-8.93,0,*5E
1484967881.23,35256,7.56,74082.3,-7.17,-9.37,-8.97,0,*5D
1484967882.45,35257,7.56,74082.0,-7.15,-9.37,-8.93,0,*5A
1484967883.68,35258,7.56,74082.5,-7.17,-9.31,-8.93,0,*51
1484967884.92,35259,7.56,74078.8,-7.17,-9.31,-8.81,0,*53
1484967886.17,35260,7.56,74078.8,-7.17,-9.19,-8.81,0,*53
1484967887.39,35261,7.56,74076.3,-7.17,-9.19,-8.89,0,*5A
1484967888.64,35262,7.56,74080.5,-7.17,-9.19,-8.81,0,*51
1484967889.86,35263,7.56,74074.3,-7.17,-9.05,-8.75,0,*56
1484967891.13,35264,7.56,74076.5,-7.21,-9.11,-8.81,0,*5A
1484967892.35,35265,7.56,74082.8,-7.21,-9.01,-8.71,0,*55
1484967893.58,35266,7.56,74080.8,-7.21,-9.01,-8.71,0,*56
1484967894.79,35267,7.56,74082.0,-7.21,-8.97,-8.71,0,*59
1484967896.02,35268,7.63,74084.0,-7.17,-8.93,-8.63,0,*54
1484967897.24,35269,7.63,74082.5,-7.17,-8.93,-8.63,0,*55
1484967898.46,35270,7.63,74082.3,-7.21,-8.97,-8.59,0,*55
1484967899.67,35271,7.56,74082.8,-7.21,-8.97,-8.67,0,*59
1484967900.89,35272,7.56,74084.0,-7.17,-8.89,-8.55,0,*51
1484967902.12,35273,7.63,74084.3,-7.17,-8.93,-8.63,0,*5E
1484967903.34,35274,7.56,74080.8,-7.17,-8.93,-8.67,0,*5D
1484967904.57,35275,7.63,74086.8,-7.17,-8.93,-8.63,0,*58
1484967905.79,35276,7.56,74082.8,-7.17,-8.93,-8.63,0,*5B
1484967907.03,35277,7.56,74084.0,-7.15,-8.81,-8.51,0,*5A
1484967908.24,35278,7.63,74086.0,-7.15,-8.81,-8.55,0,*51
1484967909.44,35279,7.56,74084.3,-7.15,-8.89,-8.55,0,*58
1484967910.66,35280,7.63,74084.5,-7.17,-8.89,-8.63,0,*59
1484967911.89,35281,7.63,74084.0,-7.17,-8.93,-8.55,0,*56
1484967913.11,35282,7.56,74080.0,-7.17,-8.93,-8.55,0,*55
1484967914.33,35283,7.56,74080.5,-7.17,-8.89,-8.55,0,*5F
1484967915.54,35284,7.63,74084.0,-7.15,-8.81,-8.55,0,*52
1484967916.77,35285,7.63,74090.5,-7.17,-8.89,-8.55,0,*59
1484967918.01,35286,7.56,74084.8,-7.17,-8.81,-8.55,0,*52
1484967919.25,35287,7.63,74086.8,-7.15,-8.81,-8.51,0,*55
1484967920.44,35288,7.63,74090.0,-7.15,-8.89,-8.55,0,*56
1484967921.67,35289,7.63,74084.0,-7.15,-8.89,-8.51,0,*53
1484967922.88,35290,7.63,74086.8,-7.15,-8.81,-8.55,0,*57
1484967924.12,35291,7.63,74090.3,-7.15,-8.81,-8.51,0,*52
1484967925.32,35292,7.56,74082.3,-7.15,-8.89,-8.63,0,*58
1484967926.52,35293,7.63,74086.3,-7.15,-8.89,-8.63,0,*59
1484967927.74,35294,7.63,74086.8,-7.17,-8.97,-8.67,0,*57
1484967928.95,35295,7.63,74082.8,-7.17,-8.97,-8.67,0,*56
1484967930.2,35296,7.63,74080.3,-7.17,-9.11,-8.75,0,*59
1484967931.47,35297,7.63,74080.0,-7.17,-9.11,-8.81,0,*53
1484967932.72,35298,7.63,74076.3,-7.15,-9.11,-8.81,0,*5E
1484967933.94,35299,7.63,74082.0,-7.15,-9.05,-8.81,0,*5A
1484967935.21,35300,7.63,74076.0,-7.17,-9.11,-8.81,0,*5C
1484967936.49,35301,7.63,74082.8,-7.17,-9.11,-8.81,0,*5D
1484967937.73,35302,7.63,74082.5,-7.17,-9.05,-8.81,0,*5B
1484967938.95,35303,7.63,74082.5,-7.15,-9.11,-8.75,0,*56
1484967940.18,35304,7.63,74078.0,-7.17,-9.05,-8.67,0,*55
1484967941.4,35305,7.63,74076.5,-7.17,-9.05,-8.75,0,*57
1484967942.65,35306,7.63,74078.3,-7.17,-9.11,-8.75,0,*51
1484967943.87,35307,7.56,74072.5,-7.17,-9.05,-8.75,0,*55
1484967945.14,35308,7.56,74070.8,-7.17,-9.11,-8.81,0,*54
1484967946.34,35309,7.56,74072.5,-7.15,-9.23,-8.89,0,*5E
1484967947.57,35310,7.63,74074.5,-7.17,-9.23,-8.89,0,*54
1484967948.77,35311,7.63,74072.0,-7.15,-9.31,-8.93,0,*5F
1484967950.02,35312,7.63,74074.5,-7.17,-9.37,-9.05,0,*56
1484967951.27,35313,7.63,74076.5,-7.17,-9.45,-9.05,0,*52
1484967952.52,35314,7.63,74076.0,-7.17,-9.49,-9.05,0,*59
1484967953.76,35315,7.63,74080.0,-7.17,-9.49,-9.05,0,*58
1484967955.01,35316,7.63,74080.5,-7.17,-9.45,-9.05,0,*57
1484967956.26,35317,7.63,74080.0,-7.17,-9.49,-9.05,0,*5A
1484967957.51,35318,7.63,74080.5,-7.21,-9.37,-9.01,0,*5D
1484967958.76,35319,7.63,74082.3,-7.21,-9.37,-9.01,0,*5C
1484967960.02,35320,7.63,74076.0,-7.21,-9.41,-9.01,0,*57
1484967961.24,35321,7.63,74076.3,-7.21,-9.27,-8.97,0,*58
1484967962.46,35322,7.63,74078.8,-7.21,-9.27,-8.85,0,*58
1484967963.68,35323,7.63,74080.0,-7.21,-9.27,-8.93,0,*5E
1484967964.91,35324,7.63,74080.8,-7.21,-9.23,-8.93,0,*5D
1484967966.13,35325,7.56,74074.5,-7.21,-9.27,-8.85,0,*5F
1484967967.38,35326,7.63,74076.5,-7.23,-9.15,-8.81,0,*5B
1484967968.65,35327,7.63,74076.5,-7.21,-9.15,-8.81,0,*58
1484967969.92,35328,7.63,74076.3,-7.21,-9.11,-8.81,0,*53
1484967971.12,35329,7.63,74078.8,-7.23,-8.97,-8.71,0,*50
1484967972.31,35330,7.63,74076.5,-7.23,-8.97,-8.71,0,*58
1484967973.52,35331,7.56,74076.8,-7.21,-8.97,-8.67,0,*5C
1484967974.73,35332,7.63,74078.0,-7.21,-8.97,-8.67,0,*5F
1484967975.93,35333,7.63,74076.0,-7.23,-8.93,-8.59,0,*55
1484967977.13,35334,7.63,74082.5,-7.23,-8.85,-8.59,0,*55
1484967978.4,35335,7.63,74078.8,-7.17,-8.81,-8.51,0,*5F
1484967979.62,35336,7.63,74080.5,-7.21,-8.85,-8.55,0,*59
1484967980.85,35337,7.56,74076.3,-7.21,-8.85,-8.45,0,*59
1484967982.08,35338,7.63,74082.8,-7.21,-8.85,-8.45,0,*56
1484967983.3,35339,7.63,74082.5,-7.21,-8.85,-8.45,0,*57
1484967984.57,35340,7.63,74080.0,-7.17,-8.81,-8.51,0,*5D
1484967985.8,35341,7.63,74080.3,-7.17,-8.89,-8.41,0,*55
1484967987.05,35342,7.63,74080.5,-7.17,-8.81,-8.41,0,*5E
1484967988.29,35343,7.63,74082.3,-7.15,-8.81,-8.51,0,*5C
1484967989.53,35344,7.63,74078.3,-7.17,-8.81,-8.41,0,*58
1484967990.77,35345,7.63,74072.0,-7.17,-8.81,-8.55,0,*5C
1484967992.0,35346,7.63,74072.0,-7.17,-8.89,-8.55,0,*57
1484967993.22,35347,7.63,74076.3,-7.17,-8.93,-8.67,0,*5C
1484967994.41,35348,7.56,74074.8,-7.15,-8.93,-8.67,0,*51
1484967995.63,35349,7.63,74076.5,-7.17,-8.89,-8.55,0,*58
1484967996.87,35350,7.63,74078.8,-7.17,-8.81,-8.55,0,*58
1484967998.1,35351,7.63,74076.5,-7.17,-8.89,-8.55,0,*51
1484967999.29,35352,7.63,74076.5,-7.15,-8.89,-8.55,0,*50
1484968000.56,35353,7.63,74080.0,-7.17,-8.81,-8.51,0,*5F
1484968001.76,35354,7.63,74086.3,-7.15,-8.89,-8.55,0,*56
1484968003.0,35355,7.63,74082.0,-7.17,-8.81,-8.63,0,*58
1484968004.19,35356,7.63,74080.3,-7.15,-8.89,-8.55,0,*54
1484968005.42,35357,7.63,74078.0,-7.17,-8.93,-8.55,0,*5C
1484968006.61,35358,7.63,74078.5,-7.15,-8.97,-8.63,0,*50
1484968007.8,35359,7.63,74078.0,-7.15,-8.97,-8.63,0,*51
1484968009.0,35360,7.63,74080.5,-7.15,-8.93,-8.63,0,*5F
1484968010.22,35361,7.63,74076.0,-7.17,-8.97,-8.63,0,*58
1484968011.4,35362,7.63,74076.5,-7.15,-8.97,-8.67,0,*5D
1484968012.63,35363,7.63,74082.3,-7.17,-9.05,-8.75,0,*57
1484968013.85,35364,7.63,74082.5,-7.17,-9.05,-8.67,0,*53
1484968015.07,35365,7.63,74078.5,-7.17,-8.93,-8.75,0,*5F
1484968016.27,35366,7.63,74080.0,-7.15,-8.93,-8.63,0,*59
1484968017.47,35367,7.63,74084.3,-7.15,-8.93,-8.63,0,*58
1484968018.69,35368,7.63,74080.5,-7.17,-8.93,-8.63,0,*55
1484968019.9,35369,7.63,74076.5,-7.15,-8.81,-8.55,0,*50
1484968021.11,35370,7.56,74076.8,-7.15,-8.81,-8.55,0,*58
1484968022.33,35371,7.63,74080.8,-7.15,-8.81,-8.41,0,*5C
1484968023.57,35372,7.63,74080.0,-7.17,-8.81,-8.55,0,*58
1484968024.81,35373,7.63,74078.5,-7.17,-8.81,-8.55,0,*59
1484968026.0,35374,7.63,74080.8,-7.15,-8.89,-8.55,0,*54
1484968027.2,35375,7.63,74076.8,-7.15,-8.89,-8.55,0,*55
1484968028.4,35376,7.63,74078.8,-7.15,-8.89,-8.55,0,*56
1484968029.59,35377,7.63,74082.5,-7.15,-8.93,-8.63,0,*59
1484968030.79,35378,7.63,74078.5,-7.15,-8.93,-8.63,0,*56
1484968031.99,35379,7.63,74084.3,-7.15,-8.93,-8.55,0,*52
1484968033.18,35380,7.63,74082.5,-7.15,-8.93,-8.63,0,*51
1484968034.41,35381,7.63,74082.8,-7.17,-8.89,-8.63,0,*59
1484968035.6,35382,7.63,74082.0,-7.15,-8.89,-8.55,0,*5D
1484968036.8,35383,7.63,74082.3,-7.15,-8.89,-8.63,0,*59
1484968038.0,35384,7.63,74082.0,-7.15,-8.93,-8.55,0,*50
1484968039.21,35385,7.63,74080.8,-7.15,-8.81,-8.55,0,*52
1484968040.43,35386,7.63,74082.8,-7.17,-8.89,-8.55,0,*5B
1484968041.63,35387,7.63,74082.3,-7.15,-8.89,-8.55,0,*58
1484968042.84,35388,7.63,74086.0,-7.15,-8.81,-8.55,0,*5F
1484968044.08,35389,7.63,74086.0,-7.15,-8.81,-8.51,0,*5A
1484968045.33,35390,7.63,74082.5,-7.13,-8.85,-8.51,0,*50
1484968046.58,35391,7.63,74086.5,-7.13,-8.89,-8.51,0,*5D
1484968047.79,35392,7.63,74084.3,-7.13,-8.85,-8.59,0,*5A
1484968049.02,35393,7.63,74082.3,-7.15,-8.89,-8.51,0,*59
1484968050.27,35394,7.63,74082.3,-7.13,-8.85,-8.51,0,*54
1484968051.49,35395,7.63,74078.5,-7.11,-8.85,-8.51,0,*57
1484968052.73,35396,7.63,74080.0,-7.13,-8.75,-8.51,0,*59
1484968053.98,35397,7.63,74080.3,-7.13,-8.85,-8.51,0,*57
1484968055.21,35398,7.63,74080.3,-7.11,-8.85,-8.51,0,*5A
1484968056.4,35399,7.63,74078.5,-7.11,-8.85,-8.59,0,*53
1484968057.63,35400,7.63,74070.8,-7.11,-8.85,-8.51,0,*5C
1484968058.88,35401,7.63,74070.5,-7.13,-8.85,-8.51,0,*5F
1484968060.12,35402,7.63,74068.5,-7.13,-8.85,-8.51,0,*5C
1484968061.36,35403,7.63,74068.0,-7.13,-8.75,-8.51,0,*52
1484968062.58,35404,7.63,74074.0,-7.13,-8.93,-8.59,0,*55
1484968063.77,35405,7.63,74076.0,-7.15,-8.97,-8.67,0,*5B
1484968064.99,35406,7.63,74070.3,-7.13,-8.89,-8.63,0,*55
1484968066.21,35407,7.63,74074.5,-7.13,-8.93,-8.63,0,*5F
1484968067.42,35408,7.63,74076.5,-7.13,-8.89,-8.59,0,*52
1484968068.65,35409,7.63,74072.0,-7.11,-8.89,-8.51,0,*59
1484968069.87,35410,7.63,74078.0,-7.13,-8.89,-8.59,0,*5B
1484968071.08,35411,7.63,74074.0,-7.13,-8.89,-8.59,0,*5A
1484968072.31,35412,7.63,74074.3,-7.13,-9.01,-8.71,0,*52
1484968073.52,35413,7.63,74076.5,-7.13,-9.05,-8.71,0,*57
1484968074.72,35414,7.63,74072.3,-7.11,-9.05,-8.71,0,*52
1484968075.91,35415,7.63,74068.5,-7.11,-9.01,-8.71,0,*57
1484968077.11,35416,7.63,74072.3,-7.11,-9.05,-8.71,0,*50
1484968078.33,35417,7.63,74074.8,-7.13,-9.01,-8.63,0,*54
1484968079.52,35418,7.63,74074.3,-7.11,-8.93,-8.59,0,*5A
1484968080.74,35419,7.63,74074.8,-7.13,-8.89,-8.71,0,*58
1484968081.96,35420,7.63,74072.5,-7.13,-8.93,-8.63,0,*5A
1484968083.18,35421,7.63,74074.8,-7.13,-8.93,-8.71,0,*58
1484968084.37,35422,7.63,74078.3,-7.11,-8.93,-8.71,0,*59
1484968085.59,35423,7.63,74078.0,-7.13,-9.01,-8.71,0,*50
1484968086.81,35424,7.63,74076.0,-7.13,-9.05,-8.71,0,*53
1484968088.0,35425,7.63,74078.8,-7.11,-9.19,-8.75,0,*59
1484968089.25,35426,7.63,74078.8,-7.13,-9.15,-8.75,0,*54
1484968090.5,35427,7.63,74078.8,-7.13,-9.15,-8.85,0,*5A
1484968091.72,35428,7.63,74076.3,-7.13,-9.27,-8.85,0,*54
1484968092.95,35429,7.63,74078.5,-7.13,-9.19,-8.85,0,*58
1484968094.17,35430,7.63,74074.5,-7.13,-9.19,-8.89,0,*5C
1484968095.39,35431,7.63,74072.5,-7.13,-9.27,-8.85,0,*5C
1484968096.61,35432,7.63,74078.5,-7.13,-9.27,-8.89,0,*53
1484968097.83,35433,7.63,74078.8,-7.13,-9.27,-8.93,0,*59
1484968099.05,35434,7.63,74076.0,-7.15,-9.37,-8.97,0,*5D
1484968100.25,35435,7.63,74078.5,-7.15,-9.31,-8.97,0,*5A
1484968101.45,35436,7.63,74076.0,-7.15,-9.31,-8.93,0,*5D
1484968102.64,35437,7.63,74076.8,-7.15,-9.31,-8.97,0,*58
1484968103.87,35438,7.63,74072.5,-7.15,-9.37,-8.97,0,*51
1484968105.09,35439,7.63,74078.0,-7.17,-9.31,-8.97,0,*54
1484968106.31,35440,7.63,74076.8,-7.17,-9.31,-8.93,0,*5E
1484968107.54,35441,7.63,74074.5,-7.17,-9.31,-8.97,0,*5B
1484968108.76,35442,7.63,74074.8,-7.15,-9.37,-8.93,0,*58
1484968110.01,35443,7.63,74076.5,-7.17,-9.37,-8.97,0,*5F
1484968111.26,35444,7.63,74080.0,-7.17,-9.37,-8.97,0,*58
1484968112.52,35445,7.63,74076.5,-7.17,-9.37,-8.93,0,*5D